Time,TemperatureF,DewpointF,PressureIn,WindDirection,WindDirectionDegrees,WindSpeedMPH,WindSpeedGustMPH,Humidity,HourlyPrecipIn,Conditions,Clouds,dailyrainin,SoftwareType,DateUTC
2013-02-24 00:00:00,42.5,28.3,29.86,ESE,113,0.0,1.1,57,0.00,,,0.00,WUHU216HW,2013-02-24 06:00:00,
2013-02-24 00:05:00,42.3,28.1,29.86,East,90,0.0,0.7,57,0.00,,,0.00,WUHU216HW,2013-02-24 06:05:00,
2013-02-24 00:10:00,42.1,27.9,29.87,East,90,0.7,1.1,57,0.00,,,0.00,WUHU216HW,2013-02-24 06:10:00,
2013-02-24 00:15:00,41.8,27.5,29.86,East,90,0.7,1.1,57,0.00,,,0.00,WUHU216HW,2013-02-24 06:15:00,
2013-02-24 00:20:00,41.4,27.7,29.87,ENE,68,1.8,1.8,58,0.00,,,0.00,WUHU216HW,2013-02-24 06:20:00,
2013-02-24 00:25:00,40.7,28.3,29.86,NE,45,2.2,2.5,61,0.00,,,0.00,WUHU216HW,2013-02-24 06:25:00,
2013-02-24 00:30:00,40.1,28.5,29.86,ENE,68,3.4,3.8,63,0.00,,,0.00,WUHU216HW,2013-02-24 06:30:00,
2013-02-24 00:35:00,40.0,28.4,29.86,ENE,68,3.4,4.0,63,0.00,,,0.00,WUHU216HW,2013-02-24 06:35:00,
2013-02-24 00:40:00,39.4,27.8,29.86,ENE,68,3.4,4.0,63,0.00,,,0.00,WUHU216HW,2013-02-24 06:40:00,
2013-02-24 00:45:00,39.4,27.8,29.86,ENE,68,2.7,3.8,63,0.00,,,0.00,WUHU216HW,2013-02-24 06:45:00,
2013-02-24 00:50:00,39.6,28.7,29.86,ENE,68,3.4,3.4,65,0.00,,,0.00,WUHU216HW,2013-02-24 06:50:00,
2013-02-24 00:55:00,39.6,28.7,29.86,ENE,68,2.5,3.8,65,0.00,,,0.00,WUHU216HW,2013-02-24 06:55:00,
2013-02-24 01:00:00,39.8,28.9,29.86,East,90,2.9,3.8,65,0.00,,,0.00,WUHU216HW,2013-02-24 07:00:00,
2013-02-24 01:05:00,39.8,28.9,29.86,East,90,1.6,3.8,65,0.00,,,0.00,WUHU216HW,2013-02-24 07:05:00,
2013-02-24 01:10:00,39.8,29.3,29.87,ESE,113,1.8,3.8,66,0.00,,,0.00,WUHU216HW,2013-02-24 07:10:00,
2013-02-24 01:15:00,40.0,29.4,29.87,ENE,68,2.2,2.9,66,0.00,,,0.00,WUHU216HW,2013-02-24 07:15:00,
2013-02-24 01:20:00,39.8,29.6,29.87,ENE,68,1.8,2.9,67,0.00,,,0.00,WUHU216HW,2013-02-24 07:20:00,
2013-02-24 01:25:00,39.8,29.3,29.87,NE,45,1.8,2.9,66,0.00,,,0.00,WUHU216HW,2013-02-24 07:25:00,
2013-02-24 01:30:00,40.0,29.4,29.87,ENE,68,0.0,2.0,66,0.00,,,0.00,WUHU216HW,2013-02-24 07:30:00,
2013-02-24 01:35:00,40.0,29.8,29.87,WSW,248,0.0,1.6,67,0.00,,,0.00,WUHU216HW,2013-02-24 07:35:00,
2013-02-24 01:40:00,40.1,29.6,29.87,East,90,1.1,1.1,66,0.00,,,0.00,WUHU216HW,2013-02-24 07:40:00,
2013-02-24 01:45:00,40.0,29.4,29.87,East,90,2.2,2.2,66,0.00,,,0.00,WUHU216HW,2013-02-24 07:45:00,
2013-02-24 01:50:00,39.8,29.3,29.87,ENE,68,2.9,2.9,66,0.00,,,0.00,WUHU216HW,2013-02-24 07:50:00,
2013-02-24 01:55:00,39.6,29.4,29.86,ENE,68,3.6,3.8,67,0.00,,,0.00,WUHU216HW,2013-02-24 07:55:00,
2013-02-24 02:00:00,39.2,29.5,29.86,East,90,4.0,4.0,68,0.00,,,0.00,WUHU216HW,2013-02-24 08:00:00,
2013-02-24 02:05:00,39.2,29.5,29.86,ENE,68,4.0,4.5,68,0.00,,,0.00,WUHU216HW,2013-02-24 08:05:00,
2013-02-24 02:10:00,39.1,29.4,29.86,East,90,4.3,4.7,68,0.00,,,0.00,WUHU216HW,2013-02-24 08:10:00,
2013-02-24 02:15:00,39.1,29.7,29.85,East,90,5.6,6.7,69,0.00,,,0.00,WUHU216HW,2013-02-24 08:15:00,
2013-02-24 02:20:00,39.1,30.1,29.85,East,90,7.8,7.8,70,0.00,,,0.00,WUHU216HW,2013-02-24 08:20:00,
2013-02-24 02:25:00,39.2,30.2,29.84,East,90,8.7,8.7,70,0.00,,,0.00,WUHU216HW,2013-02-24 08:25:00,
2013-02-24 02:30:00,39.4,30.8,29.84,ESE,113,7.6,9.4,71,0.00,,,0.00,WUHU216HW,2013-02-24 08:30:00,
2013-02-24 02:35:00,39.6,31.0,29.84,East,90,9.2,9.6,71,0.00,,,0.00,WUHU216HW,2013-02-24 08:35:00,
2013-02-24 02:40:00,39.8,30.8,29.83,ENE,68,7.8,11.4,70,0.00,,,0.00,WUHU216HW,2013-02-24 08:40:00,
2013-02-24 02:45:00,40.0,31.0,29.83,East,90,6.7,11.4,70,0.00,,,0.00,WUHU216HW,2013-02-24 08:45:00,
2013-02-24 02:50:00,40.0,30.6,29.83,ESE,113,7.6,9.8,69,0.00,,,0.00,WUHU216HW,2013-02-24 08:50:00,
2013-02-24 02:55:00,40.1,30.8,29.83,East,90,7.6,10.5,69,0.00,,,0.00,WUHU216HW,2013-02-24 08:55:00,
2013-02-24 03:00:00,40.1,30.8,29.83,ESE,113,7.2,11.0,69,0.00,,,0.00,WUHU216HW,2013-02-24 09:00:00,
2013-02-24 03:05:00,40.0,30.3,29.83,ESE,113,5.8,11.0,68,0.00,,,0.00,WUHU216HW,2013-02-24 09:05:00,
2013-02-24 03:10:00,40.0,30.3,29.83,ESE,113,7.2,10.3,68,0.00,,,0.00,WUHU216HW,2013-02-24 09:10:00,
2013-02-24 03:15:00,40.0,30.6,29.83,ESE,113,6.5,9.2,69,0.00,,,0.00,WUHU216HW,2013-02-24 09:15:00,
2013-02-24 03:20:00,40.0,30.6,29.82,ESE,113,8.3,8.7,69,0.00,,,0.00,WUHU216HW,2013-02-24 09:20:00,
2013-02-24 03:25:00,40.0,30.6,29.82,ESE,113,6.7,8.5,69,0.00,,,0.00,WUHU216HW,2013-02-24 09:25:00,
2013-02-24 03:30:00,40.0,31.0,29.82,ESE,113,7.8,8.5,70,0.00,,,0.00,WUHU216HW,2013-02-24 09:30:00,
2013-02-24 03:35:00,40.0,31.0,29.83,East,90,4.7,8.1,70,0.00,,,0.00,WUHU216HW,2013-02-24 09:35:00,
2013-02-24 03:40:00,40.0,30.6,29.83,SSE,158,3.1,7.8,69,0.00,,,0.00,WUHU216HW,2013-02-24 09:40:00,
2013-02-24 03:45:00,40.0,30.6,29.83,SE,135,3.1,6.5,69,0.00,,,0.00,WUHU216HW,2013-02-24 09:45:00,
2013-02-24 03:50:00,40.0,31.0,29.83,ESE,113,2.5,4.7,70,0.00,,,0.00,WUHU216HW,2013-02-24 09:50:00,
2013-02-24 03:55:00,40.0,31.0,29.83,ESE,113,2.7,3.4,70,0.00,,,0.00,WUHU216HW,2013-02-24 09:55:00,
2013-02-24 04:00:00,39.8,30.8,29.83,ESE,113,2.9,3.4,70,0.00,,,0.00,WUHU216HW,2013-02-24 10:00:00,
2013-02-24 04:05:00,39.8,30.8,29.83,East,90,3.6,3.8,70,0.00,,,0.00,WUHU216HW,2013-02-24 10:05:00,
2013-02-24 04:10:00,39.6,31.0,29.83,East,90,2.7,3.8,71,0.00,,,0.00,WUHU216HW,2013-02-24 10:10:00,
2013-02-24 04:15:00,39.4,30.8,29.83,East,90,3.6,3.8,71,0.00,,,0.00,WUHU216HW,2013-02-24 10:15:00,
2013-02-24 04:20:00,39.4,30.8,29.82,ESE,113,3.4,3.6,71,0.00,,,0.00,WUHU216HW,2013-02-24 10:20:00,
2013-02-24 04:25:00,39.2,30.6,29.83,SE,135,2.5,3.8,71,0.00,,,0.00,WUHU216HW,2013-02-24 10:25:00,
2013-02-24 04:30:00,39.2,30.6,29.83,SE,135,2.5,3.8,71,0.00,,,0.00,WUHU216HW,2013-02-24 10:30:00,
2013-02-24 04:35:00,39.2,30.6,29.83,SE,135,3.1,3.4,71,0.00,,,0.00,WUHU216HW,2013-02-24 10:35:00,
2013-02-24 04:40:00,39.2,30.6,29.83,ESE,113,2.9,3.4,71,0.00,,,0.00,WUHU216HW,2013-02-24 10:40:00,
2013-02-24 04:44:00,39.2,30.6,29.83,SE,135,1.3,3.4,71,0.00,,,0.00,WUHU216HW,2013-02-24 10:44:00,
2013-02-24 04:49:00,39.2,31.2,29.83,SE,135,0.0,3.1,73,0.00,,,0.00,WUHU216HW,2013-02-24 10:49:00,
2013-02-24 04:54:00,39.4,31.8,29.83,ESE,113,0.0,1.8,74,0.00,,,0.00,WUHU216HW,2013-02-24 10:54:00,
2013-02-24 04:59:00,39.2,31.6,29.83,ESE,113,0.0,0.0,74,0.00,,,0.00,WUHU216HW,2013-02-24 10:59:00,
2013-02-24 05:04:00,39.2,31.6,29.83,ESE,113,1.8,1.8,74,0.00,,,0.00,WUHU216HW,2013-02-24 11:04:00,
2013-02-24 05:09:00,39.2,32.0,29.83,ESE,113,1.1,1.8,75,0.00,,,0.00,WUHU216HW,2013-02-24 11:09:00,
2013-02-24 05:14:00,39.1,31.8,29.83,East,90,1.1,1.6,75,0.00,,,0.00,WUHU216HW,2013-02-24 11:14:00,
2013-02-24 05:19:00,39.1,32.1,29.83,ESE,113,0.9,2.2,76,0.00,,,0.00,WUHU216HW,2013-02-24 11:19:00,
2013-02-24 05:24:00,39.1,31.8,29.83,ESE,113,3.4,3.6,75,0.00,,,0.00,WUHU216HW,2013-02-24 11:24:00,
2013-02-24 05:29:00,38.9,31.6,29.83,ESE,113,2.7,3.6,75,0.00,,,0.00,WUHU216HW,2013-02-24 11:29:00,
2013-02-24 05:34:00,39.1,31.4,29.83,ESE,113,3.1,3.4,74,0.00,,,0.00,WUHU216HW,2013-02-24 11:34:00,
2013-02-24 05:39:00,39.1,31.4,29.83,ESE,113,3.8,4.3,74,0.00,,,0.00,WUHU216HW,2013-02-24 11:39:00,
2013-02-24 05:44:00,39.1,31.4,29.83,ESE,113,3.8,4.3,74,0.00,,,0.00,WUHU216HW,2013-02-24 11:44:00,
2013-02-24 05:49:00,38.9,31.2,29.83,ESE,113,2.7,4.3,74,0.00,,,0.00,WUHU216HW,2013-02-24 11:49:00,
2013-02-24 05:54:00,39.1,31.4,29.83,ENE,68,2.7,4.0,74,0.00,,,0.00,WUHU216HW,2013-02-24 11:54:00,
2013-02-24 05:59:00,39.1,31.2,29.83,ESE,113,2.9,4.0,73,0.00,,,0.00,WUHU216HW,2013-02-24 11:59:00,
2013-02-24 06:04:00,39.2,31.2,29.83,East,90,3.4,4.0,73,0.00,,,0.00,WUHU216HW,2013-02-24 12:04:00,
2013-02-24 06:09:00,39.2,31.6,29.83,East,90,3.4,4.7,74,0.00,,,0.00,WUHU216HW,2013-02-24 12:09:00,
2013-02-24 06:14:00,39.1,31.4,29.83,ESE,113,3.1,4.7,74,0.00,,,0.00,WUHU216HW,2013-02-24 12:14:00,
2013-02-24 06:19:00,39.1,31.4,29.84,ESE,113,3.4,4.5,74,0.00,,,0.00,WUHU216HW,2013-02-24 12:19:00,
2013-02-24 06:24:00,39.1,31.4,29.84,ESE,113,4.7,5.4,74,0.00,,,0.00,WUHU216HW,2013-02-24 12:24:00,
2013-02-24 06:29:00,39.1,31.4,29.84,ESE,113,4.0,5.4,74,0.00,,,0.00,WUHU216HW,2013-02-24 12:29:00,
2013-02-24 06:34:00,39.1,31.4,29.84,ESE,113,3.6,4.9,74,0.00,,,0.00,WUHU216HW,2013-02-24 12:34:00,
2013-02-24 06:39:00,39.1,31.4,29.84,ESE,113,2.7,4.7,74,0.00,,,0.00,WUHU216HW,2013-02-24 12:39:00,
2013-02-24 06:44:00,39.1,31.4,29.85,ESE,113,4.7,4.7,74,0.00,,,0.00,WUHU216HW,2013-02-24 12:44:00,
2013-02-24 06:49:00,39.1,31.4,29.85,SE,135,4.5,4.9,74,0.00,,,0.00,WUHU216HW,2013-02-24 12:49:00,
2013-02-24 06:54:00,39.1,31.4,29.85,ESE,113,5.1,5.1,74,0.00,,,0.00,WUHU216HW,2013-02-24 12:54:00,
2013-02-24 06:59:00,39.1,31.8,29.85,East,90,5.4,6.7,75,0.00,,,0.00,WUHU216HW,2013-02-24 12:59:00,
2013-02-24 07:04:00,39.1,32.1,29.85,ESE,113,5.4,6.7,76,0.00,,,0.00,WUHU216HW,2013-02-24 13:04:00,
2013-02-24 07:09:00,39.2,32.3,29.85,ESE,113,4.9,6.0,76,0.00,,,0.00,WUHU216HW,2013-02-24 13:09:00,
2013-02-24 07:14:00,39.6,32.9,29.84,ESE,113,4.3,6.5,77,0.00,,,0.00,WUHU216HW,2013-02-24 13:14:00,
2013-02-24 07:19:00,39.8,33.1,29.84,ESE,113,5.6,6.7,77,0.00,,,0.00,WUHU216HW,2013-02-24 13:19:00,
2013-02-24 07:24:00,40.0,33.3,29.84,ESE,113,5.4,6.7,77,0.00,,,0.00,WUHU216HW,2013-02-24 13:24:00,
2013-02-24 07:29:00,40.3,33.7,29.85,ESE,113,6.3,6.7,77,0.00,,,0.00,WUHU216HW,2013-02-24 13:29:00,
2013-02-24 07:34:00,40.5,33.9,29.85,SE,135,6.0,7.4,77,0.00,,,0.00,WUHU216HW,2013-02-24 13:34:00,
2013-02-24 07:39:00,40.9,34.1,29.85,ESE,113,4.9,7.4,77,0.00,,,0.00,WUHU216HW,2013-02-24 13:39:00,
2013-02-24 07:44:00,41.4,34.4,29.85,ESE,113,4.7,6.9,76,0.00,,,0.00,WUHU216HW,2013-02-24 13:44:00,
2013-02-24 07:49:00,41.8,34.8,29.86,East,90,5.6,6.7,76,0.00,,,0.00,WUHU216HW,2013-02-24 13:49:00,
2013-02-24 07:54:00,42.3,34.9,29.86,ESE,113,5.4,8.1,75,0.00,,,0.00,WUHU216HW,2013-02-24 13:54:00,
2013-02-24 07:59:00,42.7,35.3,29.86,SE,135,6.3,10.7,75,0.00,,,0.00,WUHU216HW,2013-02-24 13:59:00,
2013-02-24 08:04:00,43.4,35.6,29.86,SE,135,7.8,10.7,74,0.00,,,0.00,WUHU216HW,2013-02-24 14:04:00,
2013-02-24 08:09:00,43.9,36.2,29.86,ESE,113,8.7,9.8,74,0.00,,,0.00,WUHU216HW,2013-02-24 14:09:00,
2013-02-24 08:14:00,44.6,36.8,29.86,SE,135,6.9,9.8,74,0.00,,,0.00,WUHU216HW,2013-02-24 14:14:00,
2013-02-24 08:19:00,45.0,36.8,29.86,South,180,5.1,8.7,73,0.00,,,0.00,WUHU216HW,2013-02-24 14:19:00,
2013-02-24 08:24:00,45.5,37.1,29.86,ESE,113,6.7,10.3,72,0.00,,,0.00,WUHU216HW,2013-02-24 14:24:00,
2013-02-24 08:30:00,46.1,37.6,29.87,ESE,113,5.8,10.3,72,0.00,,,0.00,WUHU216HW,2013-02-24 14:30:00,
2013-02-24 08:35:00,46.6,37.8,29.87,ESE,113,4.9,8.9,71,0.00,,,0.00,WUHU216HW,2013-02-24 14:35:00,
2013-02-24 08:40:00,47.2,38.3,29.87,SE,135,4.7,8.9,71,0.00,,,0.00,WUHU216HW,2013-02-24 14:40:00,
2013-02-24 08:45:00,47.9,38.2,29.87,ESE,113,5.1,8.7,69,0.00,,,0.00,WUHU216HW,2013-02-24 14:45:00,
2013-02-24 08:50:00,48.2,38.2,29.87,SE,135,7.4,8.7,68,0.00,,,0.00,WUHU216HW,2013-02-24 14:50:00,
2013-02-24 08:55:00,49.1,39.0,29.87,SSE,158,7.4,8.3,68,0.00,,,0.00,WUHU216HW,2013-02-24 14:55:00,
2013-02-24 09:00:00,49.7,39.2,29.87,ESE,113,6.0,8.5,67,0.00,,,0.00,WUHU216HW,2013-02-24 15:00:00,
2013-02-24 09:05:00,50.2,39.7,29.87,ESE,113,4.7,9.2,67,0.00,,,0.00,WUHU216HW,2013-02-24 15:05:00,
2013-02-24 09:10:00,50.8,39.8,29.87,SSE,158,7.4,9.8,66,0.00,,,0.00,WUHU216HW,2013-02-24 15:10:00,
2013-02-24 09:15:00,51.3,39.9,29.87,SSE,158,6.9,9.8,65,0.00,,,0.00,WUHU216HW,2013-02-24 15:15:00,
2013-02-24 09:20:00,51.8,40.0,29.87,ESE,113,9.8,11.4,64,0.00,,,0.00,WUHU216HW,2013-02-24 15:20:00,
2013-02-24 09:25:00,52.2,40.0,29.86,East,90,9.2,13.4,63,0.00,,,0.00,WUHU216HW,2013-02-24 15:25:00,
2013-02-24 09:30:00,52.9,40.6,29.86,ESE,113,7.4,13.4,63,0.00,,,0.00,WUHU216HW,2013-02-24 15:30:00,
2013-02-24 09:35:00,53.5,40.8,29.87,ESE,113,10.3,10.5,62,0.00,,,0.00,WUHU216HW,2013-02-24 15:35:00,
2013-02-24 09:40:00,53.8,40.7,29.87,ESE,113,8.5,10.5,61,0.00,,,0.00,WUHU216HW,2013-02-24 15:40:00,
2013-02-24 09:45:00,54.4,41.2,29.87,SE,135,6.3,10.3,61,0.00,,,0.00,WUHU216HW,2013-02-24 15:45:00,
2013-02-24 09:50:00,55.1,41.4,29.87,ESE,113,6.9,9.8,60,0.00,,,0.00,WUHU216HW,2013-02-24 15:50:00,
2013-02-24 09:55:00,55.6,41.9,29.87,South,180,5.4,9.8,60,0.00,,,0.00,WUHU216HW,2013-02-24 15:55:00,
2013-02-24 10:00:00,56.2,42.0,29.87,ESE,113,6.7,9.8,59,0.00,,,0.00,WUHU216HW,2013-02-24 16:00:00,
2013-02-24 10:05:00,56.5,42.4,29.86,ESE,113,9.2,9.8,59,0.00,,,0.00,WUHU216HW,2013-02-24 16:05:00,
2013-02-24 10:10:00,57.2,42.1,29.86,SE,135,7.4,11.2,57,0.00,,,0.00,WUHU216HW,2013-02-24 16:10:00,
2013-02-24 10:15:00,57.6,42.5,29.86,SE,135,12.1,12.1,57,0.00,,,0.00,WUHU216HW,2013-02-24 16:15:00,
2013-02-24 10:20:00,57.8,43.1,29.86,SE,135,9.8,12.3,58,0.00,,,0.00,WUHU216HW,2013-02-24 16:20:00,
2013-02-24 10:25:00,58.0,42.9,29.85,SE,135,13.0,13.4,57,0.00,,,0.00,WUHU216HW,2013-02-24 16:25:00,
2013-02-24 10:30:00,58.3,43.1,29.85,SSE,158,6.7,13.4,57,0.00,,,0.00,WUHU216HW,2013-02-24 16:30:00,
2013-02-24 10:35:00,58.9,43.7,29.86,SE,135,6.0,13.0,57,0.00,,,0.00,WUHU216HW,2013-02-24 16:35:00,
2013-02-24 10:40:00,59.4,43.2,29.86,SSE,158,7.8,12.1,55,0.00,,,0.00,WUHU216HW,2013-02-24 16:40:00,
2013-02-24 10:45:00,59.8,43.6,29.85,SSE,158,7.6,12.1,55,0.00,,,0.00,WUHU216HW,2013-02-24 16:45:00,
2013-02-24 10:50:00,60.1,43.4,29.85,SE,135,8.9,10.5,54,0.00,,,0.00,WUHU216HW,2013-02-24 16:50:00,
2013-02-24 10:55:00,60.5,43.8,29.85,South,180,8.5,12.8,54,0.00,,,0.00,WUHU216HW,2013-02-24 16:55:00,
2013-02-24 11:00:00,60.8,44.1,29.85,SE,135,7.4,12.8,54,0.00,,,0.00,WUHU216HW,2013-02-24 17:00:00,
2013-02-24 11:05:00,61.2,43.9,29.85,SSE,158,10.1,10.5,53,0.00,,,0.00,WUHU216HW,2013-02-24 17:05:00,
2013-02-24 11:10:00,61.6,44.2,29.85,SSE,158,10.7,10.7,53,0.00,,,0.00,WUHU216HW,2013-02-24 17:10:00,
2013-02-24 11:15:00,62.1,44.2,29.84,ESE,113,4.9,12.1,52,0.00,,,0.00,WUHU216HW,2013-02-24 17:15:00,
2013-02-24 11:20:00,62.5,43.6,29.84,SSW,203,10.7,14.3,50,0.00,,,0.00,WUHU216HW,2013-02-24 17:20:00,
2013-02-24 11:25:00,62.8,44.4,29.84,SSE,158,10.7,17.4,51,0.00,,,0.00,WUHU216HW,2013-02-24 17:25:00,
2013-02-24 11:30:00,63.4,44.9,29.84,ESE,113,7.6,17.4,51,0.00,,,0.00,WUHU216HW,2013-02-24 17:30:00,
2013-02-24 11:35:00,63.7,44.7,29.83,SSE,158,12.5,15.0,50,0.00,,,0.00,WUHU216HW,2013-02-24 17:35:00,
2013-02-24 11:40:00,63.7,44.7,29.83,SE,135,6.9,14.5,50,0.00,,,0.00,WUHU216HW,2013-02-24 17:40:00,
2013-02-24 11:45:00,64.1,44.5,29.82,ESE,113,11.6,13.6,49,0.00,,,0.00,WUHU216HW,2013-02-24 17:45:00,
2013-02-24 11:50:00,64.4,44.8,29.82,ESE,113,13.4,14.5,49,0.00,,,0.00,WUHU216HW,2013-02-24 17:50:00,
2013-02-24 11:55:00,64.8,44.6,29.82,SE,135,8.7,14.5,48,0.00,,,0.00,WUHU216HW,2013-02-24 17:55:00,
2013-02-24 12:00:00,65.2,43.7,29.81,South,180,8.5,13.6,46,0.00,,,0.00,WUHU216HW,2013-02-24 18:00:00,
2013-02-24 12:05:00,65.2,44.4,29.81,ESE,113,7.8,13.4,47,0.00,,,0.00,WUHU216HW,2013-02-24 18:05:00,
2013-02-24 12:10:00,65.5,44.1,29.81,SSE,158,6.9,13.0,46,0.00,,,0.00,WUHU216HW,2013-02-24 18:10:00,
2013-02-24 12:15:00,65.7,44.3,29.81,ESE,113,12.1,14.3,46,0.00,,,0.00,WUHU216HW,2013-02-24 18:15:00,
2013-02-24 12:20:00,65.9,43.3,29.80,SSE,158,11.4,14.3,44,0.00,,,0.00,WUHU216HW,2013-02-24 18:20:00,
2013-02-24 12:25:00,66.2,43.6,29.80,SE,135,11.2,12.5,44,0.00,,,0.00,WUHU216HW,2013-02-24 18:25:00,
2013-02-24 12:30:00,66.4,43.7,29.80,South,180,13.0,13.2,44,0.00,,,0.00,WUHU216HW,2013-02-24 18:30:00,
2013-02-24 12:35:00,66.2,43.0,29.80,SSE,158,8.7,13.2,43,0.00,,,0.00,WUHU216HW,2013-02-24 18:35:00,
2013-02-24 12:40:00,66.6,44.6,29.79,SE,135,5.8,13.0,45,0.00,,,0.00,WUHU216HW,2013-02-24 18:40:00,
2013-02-24 12:45:00,67.0,44.3,29.78,ESE,113,8.5,11.6,44,0.00,,,0.00,WUHU216HW,2013-02-24 18:45:00,
2013-02-24 12:50:00,67.7,44.9,29.78,East,90,12.5,13.2,44,0.00,,,0.00,WUHU216HW,2013-02-24 18:50:00,
2013-02-24 12:55:00,67.7,44.9,29.78,SSE,158,6.9,14.8,44,0.00,,,0.00,WUHU216HW,2013-02-24 18:55:00,
2013-02-24 13:00:00,68.0,44.7,29.77,SE,135,8.5,17.2,43,0.00,,,0.00,WUHU216HW,2013-02-24 19:00:00,
2013-02-24 13:05:00,68.0,44.0,29.77,ESE,113,12.1,17.2,42,0.00,,,0.00,WUHU216HW,2013-02-24 19:05:00,
2013-02-24 13:10:00,67.9,43.3,29.76,ESE,113,8.5,16.1,41,0.00,,,0.00,WUHU216HW,2013-02-24 19:10:00,
2013-02-24 13:15:00,68.0,44.7,29.76,ESE,113,9.8,16.3,43,0.00,,,0.00,WUHU216HW,2013-02-24 19:15:00,
2013-02-24 13:20:00,68.6,43.9,29.76,East,90,12.1,16.3,41,0.00,,,0.00,WUHU216HW,2013-02-24 19:20:00,
2013-02-24 13:25:00,68.8,44.1,29.75,SE,135,13.6,19.7,41,0.00,,,0.00,WUHU216HW,2013-02-24 19:25:00,
2013-02-24 13:30:00,68.4,43.7,29.75,SE,135,9.8,19.7,41,0.00,,,0.00,WUHU216HW,2013-02-24 19:30:00,
2013-02-24 13:35:00,68.6,43.9,29.74,SE,135,13.2,16.6,41,0.00,,,0.00,WUHU216HW,2013-02-24 19:35:00,
2013-02-24 13:40:00,68.4,43.2,29.74,ESE,113,14.5,16.6,40,0.00,,,0.00,WUHU216HW,2013-02-24 19:40:00,
2013-02-24 13:45:00,68.8,43.5,29.73,ESE,113,9.4,14.5,40,0.00,,,0.00,WUHU216HW,2013-02-24 19:45:00,
2013-02-24 13:50:00,69.1,43.8,29.74,SE,135,7.8,14.5,40,0.00,,,0.00,WUHU216HW,2013-02-24 19:50:00,
2013-02-24 13:55:00,69.1,43.8,29.73,SE,135,13.2,18.1,40,0.00,,,0.00,WUHU216HW,2013-02-24 19:55:00,
2013-02-24 14:00:00,69.1,43.8,29.73,ESE,113,12.3,18.1,40,0.00,,,0.00,WUHU216HW,2013-02-24 20:00:00,
2013-02-24 14:05:00,69.3,43.2,29.72,ESE,113,13.2,16.1,39,0.00,,,0.00,WUHU216HW,2013-02-24 20:05:00,
2013-02-24 14:10:00,69.5,43.4,29.72,ESE,113,10.3,13.6,39,0.00,,,0.00,WUHU216HW,2013-02-24 20:10:00,
2013-02-24 14:15:00,69.5,42.7,29.72,SE,135,10.3,15.7,38,0.00,,,0.00,WUHU216HW,2013-02-24 20:15:00,
2013-02-24 14:20:00,69.7,43.6,29.72,SE,135,14.3,17.4,39,0.00,,,0.00,WUHU216HW,2013-02-24 20:20:00,
2013-02-24 14:25:00,69.8,43.0,29.71,ESE,113,13.4,17.4,38,0.00,,,0.00,WUHU216HW,2013-02-24 20:25:00,
2013-02-24 14:30:00,70.2,44.0,29.71,SE,135,8.7,15.7,39,0.00,,,0.00,WUHU216HW,2013-02-24 20:30:00,
2013-02-24 14:35:00,70.2,43.3,29.71,ESE,113,13.4,15.7,38,0.00,,,0.00,WUHU216HW,2013-02-24 20:35:00,
2013-02-24 14:40:00,70.2,42.6,29.70,ESE,113,12.3,16.3,37,0.00,,,0.00,WUHU216HW,2013-02-24 20:40:00,
2013-02-24 14:45:00,69.8,42.2,29.70,ESE,113,10.7,16.3,37,0.00,,,0.00,WUHU216HW,2013-02-24 20:45:00,
2013-02-24 14:50:00,69.7,41.3,29.70,SE,135,12.1,18.1,36,0.00,,,0.00,WUHU216HW,2013-02-24 20:50:00,
2013-02-24 14:55:00,69.8,40.8,29.69,SE,135,15.2,18.1,35,0.00,,,0.00,WUHU216HW,2013-02-24 20:55:00,
2013-02-24 15:00:00,70.0,41.7,29.69,East,90,8.5,15.2,36,0.00,,,0.00,WUHU216HW,2013-02-24 21:00:00,
2013-02-24 15:05:00,70.2,42.6,29.69,East,90,8.9,16.6,37,0.00,,,0.00,WUHU216HW,2013-02-24 21:05:00,
2013-02-24 15:10:00,70.2,41.9,29.69,ESE,113,11.6,17.2,36,0.00,,,0.00,WUHU216HW,2013-02-24 21:10:00,
2013-02-24 15:15:00,70.0,42.4,29.68,East,90,11.4,17.2,37,0.00,,,0.00,WUHU216HW,2013-02-24 21:15:00,
2013-02-24 15:20:00,70.7,43.0,29.68,ESE,113,13.2,17.2,37,0.00,,,0.00,WUHU216HW,2013-02-24 21:20:00,
2013-02-24 15:25:00,70.6,42.9,29.68,SE,135,10.3,17.2,37,0.00,,,0.00,WUHU216HW,2013-02-24 21:25:00,
2013-02-24 15:30:00,70.6,41.4,29.69,ESE,113,11.2,16.3,35,0.00,,,0.00,WUHU216HW,2013-02-24 21:30:00,
2013-02-24 15:35:00,70.4,41.2,29.68,ESE,113,11.4,15.7,35,0.00,,,0.00,WUHU216HW,2013-02-24 21:35:00,
2013-02-24 15:40:00,70.2,41.1,29.68,East,90,14.1,15.7,35,0.00,,,0.00,WUHU216HW,2013-02-24 21:40:00,
2013-02-24 15:45:00,70.4,41.2,29.68,East,90,13.4,17.7,35,0.00,,,0.00,WUHU216HW,2013-02-24 21:45:00,
2013-02-24 15:50:00,70.4,41.2,29.68,ESE,113,11.9,17.7,35,0.00,,,0.00,WUHU216HW,2013-02-24 21:50:00,
2013-02-24 15:55:00,70.4,41.2,29.67,SE,135,12.1,17.2,35,0.00,,,0.00,WUHU216HW,2013-02-24 21:55:00,
2013-02-24 16:00:00,70.4,41.2,29.67,SE,135,11.2,19.2,35,0.00,,,0.00,WUHU216HW,2013-02-24 22:00:00,
2013-02-24 16:05:00,70.6,41.4,29.67,SE,135,9.8,19.2,35,0.00,,,0.00,WUHU216HW,2013-02-24 22:05:00,
2013-02-24 16:10:00,70.4,40.5,29.66,ESE,113,13.6,16.6,34,0.00,,,0.00,WUHU216HW,2013-02-24 22:10:00,
2013-02-24 16:15:00,70.2,40.3,29.66,ESE,113,15.7,17.2,34,0.00,,,0.00,WUHU216HW,2013-02-24 22:15:00,
2013-02-24 16:20:00,70.2,40.3,29.65,East,90,7.2,17.2,34,0.00,,,0.00,WUHU216HW,2013-02-24 22:20:00,
2013-02-24 16:25:00,70.2,40.3,29.65,East,90,14.3,17.0,34,0.00,,,0.00,WUHU216HW,2013-02-24 22:25:00,
2013-02-24 16:30:00,70.2,40.3,29.65,SE,135,12.3,17.0,34,0.00,,,0.00,WUHU216HW,2013-02-24 22:30:00,
2013-02-24 16:35:00,70.0,40.2,29.65,ESE,113,9.6,17.4,34,0.00,,,0.00,WUHU216HW,2013-02-24 22:35:00,
2013-02-24 16:40:00,70.0,40.2,29.64,ESE,113,12.5,21.3,34,0.00,,,0.00,WUHU216HW,2013-02-24 22:40:00,
2013-02-24 16:45:00,69.8,39.3,29.65,SE,135,16.3,21.3,33,0.00,,,0.00,WUHU216HW,2013-02-24 22:45:00,
2013-02-24 16:50:00,69.7,39.2,29.65,SE,135,11.0,19.2,33,0.00,,,0.00,WUHU216HW,2013-02-24 22:50:00,
2013-02-24 16:55:00,69.5,39.0,29.65,ESE,113,15.7,19.2,33,0.00,,,0.00,WUHU216HW,2013-02-24 22:55:00,
2013-02-24 17:00:00,69.1,38.6,29.65,SE,135,12.1,18.6,33,0.00,,,0.00,WUHU216HW,2013-02-24 23:00:00,
2013-02-24 17:05:00,69.1,38.6,29.65,ESE,113,10.3,16.3,33,0.00,,,0.00,WUHU216HW,2013-02-24 23:05:00,
2013-02-24 17:10:00,69.1,38.6,29.65,ESE,113,10.3,10.3,33,0.00,,,0.00,WUHU216HW,2013-02-24 23:10:00,
2013-02-24 19:00:00,62.6,38.5,29.67,ESE,113,4.5,4.5,41,0.00,,,0.00,WUHU216HW,2013-02-25 01:00:00,
2013-02-24 19:05:00,62.3,38.8,29.67,East,90,4.7,6.3,42,0.00,,,0.00,WUHU216HW,2013-02-25 01:05:00,
2013-02-24 19:10:00,61.7,38.9,29.67,East,90,5.6,6.7,43,0.00,,,0.00,WUHU216HW,2013-02-25 01:10:00,
2013-02-24 19:15:00,61.6,39.3,29.66,ESE,113,6.0,7.4,44,0.00,,,0.00,WUHU216HW,2013-02-25 01:15:00,
2013-02-24 19:20:00,61.2,39.6,29.66,ESE,113,6.0,7.4,45,0.00,,,0.00,WUHU216HW,2013-02-25 01:20:00,
2013-02-24 19:25:00,60.8,39.2,29.65,ESE,113,7.8,8.5,45,0.00,,,0.00,WUHU216HW,2013-02-25 01:25:00,
2013-02-24 19:30:00,60.8,39.2,29.65,ESE,113,7.4,8.5,45,0.00,,,0.00,WUHU216HW,2013-02-25 01:30:00,
2013-02-24 19:35:00,60.8,39.2,29.65,ESE,113,7.4,8.5,45,0.00,,,0.00,WUHU216HW,2013-02-25 01:35:00,
2013-02-24 20:00:00,59.6,39.2,29.65,ESE,113,6.7,6.7,47,0.00,,,0.00,WUHU216HW,2013-02-25 02:00:00,
2013-02-24 20:05:00,59.4,39.1,29.65,ESE,113,5.6,8.5,47,0.00,,,0.00,WUHU216HW,2013-02-25 02:05:00,
2013-02-24 20:10:00,59.4,39.7,29.64,ESE,113,5.8,9.2,48,0.00,,,0.00,WUHU216HW,2013-02-25 02:10:00,
2013-02-24 20:15:00,59.4,39.7,29.64,East,90,7.8,9.8,48,0.00,,,0.00,WUHU216HW,2013-02-25 02:15:00,
2013-02-24 20:20:00,59.0,39.3,29.64,East,90,5.6,9.8,48,0.00,,,0.00,WUHU216HW,2013-02-25 02:20:00,
2013-02-24 20:25:00,58.9,39.2,29.64,ESE,113,7.2,9.2,48,0.00,,,0.00,WUHU216HW,2013-02-25 02:25:00,
2013-02-24 20:30:00,58.7,39.1,29.64,East,90,6.9,9.2,48,0.00,,,0.00,WUHU216HW,2013-02-25 02:30:00,
2013-02-24 20:35:00,58.7,39.6,29.65,ESE,113,4.9,9.2,49,0.00,,,0.00,WUHU216HW,2013-02-25 02:35:00,
2013-02-24 20:40:00,58.7,39.6,29.65,East,90,3.8,7.6,49,0.00,,,0.00,WUHU216HW,2013-02-25 02:40:00,
2013-02-24 20:45:00,58.5,39.4,29.65,ESE,113,4.7,6.7,49,0.00,,,0.00,WUHU216HW,2013-02-25 02:45:00,
2013-02-24 20:50:00,58.5,39.4,29.65,ESE,113,4.0,6.9,49,0.00,,,0.00,WUHU216HW,2013-02-25 02:50:00,
2013-02-24 20:55:00,58.5,39.4,29.65,ESE,113,5.6,7.6,49,0.00,,,0.00,WUHU216HW,2013-02-25 02:55:00,
2013-02-24 21:00:00,58.3,39.2,29.66,ESE,113,4.0,7.6,49,0.00,,,0.00,WUHU216HW,2013-02-25 03:00:00,
2013-02-24 21:05:00,58.5,39.4,29.66,East,90,4.3,7.6,49,0.00,,,0.00,WUHU216HW,2013-02-25 03:05:00,
2013-02-24 21:10:00,58.7,39.6,29.66,ESE,113,4.0,6.0,49,0.00,,,0.00,WUHU216HW,2013-02-25 03:10:00,
2013-02-24 21:15:00,58.7,39.6,29.66,ESE,113,6.3,6.3,49,0.00,,,0.00,WUHU216HW,2013-02-25 03:15:00,
2013-02-24 21:20:00,58.9,39.8,29.66,East,90,5.1,7.2,49,0.00,,,0.00,WUHU216HW,2013-02-25 03:20:00,
2013-02-24 21:25:00,58.9,39.8,29.65,ESE,113,5.6,7.6,49,0.00,,,0.00,WUHU216HW,2013-02-25 03:25:00,
2013-02-24 21:30:00,58.9,39.8,29.65,ESE,113,6.5,7.6,49,0.00,,,0.00,WUHU216HW,2013-02-25 03:30:00,
2013-02-24 21:35:00,58.9,39.8,29.65,ESE,113,8.1,8.9,49,0.00,,,0.00,WUHU216HW,2013-02-25 03:35:00,
2013-02-24 21:40:00,58.7,40.1,29.66,East,90,8.5,9.2,50,0.00,,,0.00,WUHU216HW,2013-02-25 03:40:00,
2013-02-24 21:45:00,58.7,40.1,29.66,ESE,113,6.3,9.2,50,0.00,,,0.00,WUHU216HW,2013-02-25 03:45:00,
2013-02-24 21:50:00,58.7,40.1,29.66,SE,135,8.5,9.2,50,0.00,,,0.00,WUHU216HW,2013-02-25 03:50:00,
2013-02-24 21:55:00,58.9,40.3,29.66,East,90,9.6,9.6,50,0.00,,,0.00,WUHU216HW,2013-02-25 03:55:00,
2013-02-24 22:00:00,58.7,40.1,29.66,East,90,8.5,9.6,50,0.00,,,0.00,WUHU216HW,2013-02-25 04:00:00,
2013-02-24 22:05:00,58.7,40.1,29.66,ESE,113,8.1,9.8,50,0.00,,,0.00,WUHU216HW,2013-02-25 04:05:00,
2013-02-24 22:10:00,58.5,40.5,29.65,East,90,8.7,10.5,51,0.00,,,0.00,WUHU216HW,2013-02-25 04:10:00,
2013-02-24 22:15:00,58.3,40.3,29.65,ESE,113,7.6,11.6,51,0.00,,,0.00,WUHU216HW,2013-02-25 04:15:00,
2013-02-24 22:20:00,58.1,40.1,29.65,ESE,113,6.9,11.6,51,0.00,,,0.00,WUHU216HW,2013-02-25 04:20:00,
2013-02-24 22:25:00,58.0,40.0,29.65,ESE,113,8.3,9.8,51,0.00,,,0.00,WUHU216HW,2013-02-25 04:25:00,
2013-02-24 22:30:00,57.8,39.9,29.65,East,90,6.0,9.2,51,0.00,,,0.00,WUHU216HW,2013-02-25 04:30:00,
2013-02-24 22:35:00,57.6,39.7,29.64,ESE,113,5.6,8.3,51,0.00,,,0.00,WUHU216HW,2013-02-25 04:35:00,
2013-02-24 22:40:00,57.2,39.8,29.64,ESE,113,7.6,9.4,52,0.00,,,0.00,WUHU216HW,2013-02-25 04:40:00,
2013-02-24 22:45:00,57.1,39.6,29.64,ESE,113,7.2,9.4,52,0.00,,,0.00,WUHU216HW,2013-02-25 04:45:00,
2013-02-24 22:50:00,56.9,40.0,29.64,ESE,113,5.8,7.8,53,0.00,,,0.00,WUHU216HW,2013-02-25 04:50:00,
2013-02-24 22:55:00,56.9,40.0,29.64,ESE,113,7.2,8.5,53,0.00,,,0.00,WUHU216HW,2013-02-25 04:55:00,
2013-02-24 23:00:00,56.9,40.0,29.64,ESE,113,8.5,8.7,53,0.00,,,0.00,WUHU216HW,2013-02-25 05:00:00,
2013-02-24 23:01:00,56.7,39.8,29.63,East,90,7.8,8.9,53,0.00,,,0.00,WUHU216HW,2013-02-25 05:01:00,
2013-02-24 23:06:00,56.7,39.8,29.62,ESE,113,7.2,10.3,53,0.00,,,0.00,WUHU216HW,2013-02-25 05:06:00,
2013-02-24 23:11:00,56.5,39.6,29.62,ESE,113,6.9,10.3,53,0.00,,,0.00,WUHU216HW,2013-02-25 05:11:00,
2013-02-24 23:16:00,56.3,39.4,29.62,ESE,113,7.4,9.4,53,0.00,,,0.00,WUHU216HW,2013-02-25 05:16:00,
2013-02-24 23:21:00,55.8,38.9,29.61,East,90,8.7,9.8,53,0.00,,,0.00,WUHU216HW,2013-02-25 05:21:00,
2013-02-24 23:26:00,55.6,39.2,29.61,ESE,113,8.7,10.1,54,0.00,,,0.00,WUHU216HW,2013-02-25 05:26:00,
2013-02-24 23:31:00,55.4,38.5,29.61,SE,135,4.7,10.1,53,0.00,,,0.00,WUHU216HW,2013-02-25 05:31:00,
2013-02-24 23:36:00,55.3,38.8,29.60,East,90,7.2,9.8,54,0.00,,,0.00,WUHU216HW,2013-02-25 05:36:00,
2013-02-24 23:41:00,55.1,38.6,29.60,East,90,6.9,10.5,54,0.00,,,0.00,WUHU216HW,2013-02-25 05:41:00,
2013-02-24 23:46:00,55.1,38.6,29.60,ESE,113,7.2,10.5,54,0.00,,,0.00,WUHU216HW,2013-02-25 05:46:00,
2013-02-24 23:51:00,55.1,39.1,29.58,ESE,113,12.1,12.5,55,0.00,,,0.00,WUHU216HW,2013-02-25 05:51:00,
2013-02-24 23:56:00,55.1,39.1,29.58,East,90,11.9,12.8,55,0.00,,,0.00,WUHU216HW,2013-02-25 05:56:00,